Saginaw, MI

1:38 AM EDT on April 24, 2018 (GMT -0400)
MBS International

Weather History for KMBS - October, 2014

Change the Weather History Date:

Friday, October 24, 2014

  Actual Average Record
Temperature  
Mean Temperature 51 °F 47 °F  
Max Temperature 62 °F 56 °F 75 °F (2012)
Min Temperature 39 °F 38 °F 26 °F (2002)
Degree Days  
Heating Degree Days 14    
Month to date heating degree days 314  
Since 1 July heating degree days 480  
Cooling Degree Days 0    
Month to date cooling degree days 1  
Year to date cooling degree days 539  
Moisture  
Dew Point 44 °F    
Average Humidity 78    
Maximum Humidity 93    
Minimum Humidity 62    
Precipitation  
Precipitation 0.00 in 0.08 in 0.98 in (2001)
Month to date precipitation 2.04 2.04  
Year to date precipitation 27.84 26.39  
Snow  
Snow 0.00 in - - ()
Month to date snowfall 0.0  
Since 1 July snowfall 0.0  
Since 1 September snowfall 0.0  
Snow Depth 0.00 in    
Sea Level Pressure  
Sea Level Pressure 30.02 in    
Wind  
Wind Speed 6 mph (SW)    
Max Wind Speed 14 mph    
Max Gust Speed 18 mph    
Visibility 9 miles    
Events      
T = Trace of Precipitation, MM = Missing Value Source: NWS Daily Summary

Daily Weather History Graph

Daily Weather History Graph

Search for Another Location

Airport or City:

Astronomy

Oct. 24, 2014 Rise Set
Actual Time 8:01 AM EDT 6:38 PM EDT
Civil Twilight 7:32 AM EDT 7:08 PM EDT
Nautical Twilight 6:58 AM EDT 7:41 PM EDT
Astronomical Twilight 6:25 AM EDT 8:14 PM EDT
Moon 8:40 AM EDT 7:16 PM EDT
Length of Visible Light 11h 35m
Length of Day
10h 37m
New Moon, 1% of the Moon is Illuminated
Oct 24
New Moon
Oct 30
First Quarter
Nov 6
Full
Nov 14
Last Quarter
Nov 22
New

Hourly Weather History & Observations

Time (EDT) Temp. Windchill Dew Point Humidity Pressure Visibility Wind Dir Wind Speed Gust Speed Precip Events Conditions
12:53 AM 39.9 °F 36.7 °F 35.1 °F 83% 30.11 in 10.0 mi SSW 4.6 mph - N/A   Clear
1:53 AM 42.1 °F 40.2 °F 36.0 °F 79% 30.09 in 10.0 mi SSW 3.5 mph - N/A   Mostly Cloudy
2:53 AM 44.1 °F 41.5 °F 36.0 °F 73% 30.09 in 10.0 mi South 4.6 mph - N/A   Scattered Clouds
3:53 AM 44.1 °F 41.5 °F 37.0 °F 76% 30.07 in 10.0 mi SSW 4.6 mph - N/A   Overcast
4:53 AM 43.0 °F 41.3 °F 37.0 °F 80% 30.07 in 10.0 mi SSW 3.5 mph - N/A   Overcast
5:53 AM 43.0 °F 40.3 °F 37.0 °F 80% 30.07 in 10.0 mi SSW 4.6 mph - N/A   Mostly Cloudy
6:53 AM 43.0 °F 41.3 °F 37.0 °F 80% 30.08 in 10.0 mi South 3.5 mph - N/A   Mostly Cloudy
7:53 AM 41.0 °F 36.4 °F 36.0 °F 82% 30.07 in 9.0 mi South 6.9 mph - N/A   Scattered Clouds
8:53 AM 43.0 °F 40.3 °F 39.0 °F 86% 30.08 in 7.0 mi SE 4.6 mph - N/A   Overcast
9:53 AM 45.0 °F 40.6 °F 39.0 °F 80% 30.08 in 7.0 mi SW 8.1 mph - N/A   Overcast
10:53 AM 48.0 °F - 42.1 °F 80% 30.08 in 7.0 mi SW 5.8 mph - N/A   Overcast
11:53 AM 52.0 °F - 43.0 °F 71% 30.07 in 8.0 mi WSW 5.8 mph - N/A   Overcast
12:50 PM 57.2 °F - 46.4 °F 67% 30.04 in 9.0 mi West 6.9 mph - N/A   Overcast
12:53 PM 57.0 °F - 46.0 °F 67% 30.05 in 9.0 mi SW 5.8 mph - N/A   Overcast
1:53 PM 59.0 °F - 46.9 °F 64% 30.01 in 10.0 mi SW 6.9 mph - N/A   Mostly Cloudy
2:02 PM 59.0 °F - 46.9 °F 64% 29.99 in 10.0 mi SW 8.1 mph - N/A   Mostly Cloudy
2:11 PM 60.1 °F - 48.0 °F 64% 29.99 in 10.0 mi WSW 12.7 mph - N/A   Scattered Clouds
2:53 PM 61.0 °F - 48.0 °F 62% 29.98 in 10.0 mi SW 6.9 mph - N/A   Mostly Cloudy
3:04 PM 61.0 °F - 48.9 °F 64% 29.97 in 10.0 mi WSW 10.4 mph - N/A   Mostly Cloudy
3:20 PM 61.0 °F - 48.9 °F 64% 29.98 in 10.0 mi WSW 12.7 mph - N/A   Overcast
3:53 PM 60.1 °F - 48.9 °F 67% 29.98 in 10.0 mi West 10.4 mph - N/A   Overcast
4:53 PM 60.1 °F - 48.9 °F 67% 29.98 in 10.0 mi SW 5.8 mph - N/A   Overcast
5:53 PM 60.1 °F - 48.9 °F 67% 29.97 in 10.0 mi SW 4.6 mph - N/A   Mostly Cloudy
6:53 PM 57.0 °F - 48.0 °F 72% 29.97 in 10.0 mi South 3.5 mph - N/A   Clear
7:53 PM 57.9 °F - 48.9 °F 72% 29.98 in 10.0 mi SW 5.8 mph - N/A   Overcast
8:53 PM 54.0 °F - 48.0 °F 80% 29.97 in 10.0 mi WSW 5.8 mph - N/A   Clear
9:53 PM 52.0 °F - 48.0 °F 86% 29.98 in 10.0 mi WSW 3.5 mph - N/A   Clear
10:53 PM 50.0 °F - 46.0 °F 86% 29.96 in 10.0 mi SW 8.1 mph - N/A   Clear
11:53 PM 48.9 °F - 46.0 °F 90% 29.94 in 7.0 mi SW 6.9 mph - N/A   Clear